QPF
0.01 0.01 0.02 0.04 0.20 0.15 0.03 0.02 0.00 0.00 0.00 0.00 0.00 0.00 0.00 0.00 0.00 0.00 0.00 0.00 0.00 0.00 0.00 0.00 0.00 0.00 0.00 0.00 0.00 0.00 0.00 0.00 0.00 0.00 0.00 0.01 0.00 0.00 0.00 0.00 0.00 0.00
0.01 0.02 0.03 0.03 0.05 0.02 0.01 0.00 0.00 0.00 0.00 0.00 0.00 0.00 0.00 0.00 0.00 0.00 0.00 0.00 0.00 0.00 0.00 0.00 0.00 0.00 0.00 0.00 0.00 0.00 0.00 0.00 0.00 0.00 0.00 0.00 0.00 0.00 0.00 0.00 0.01 0.00
0.01 0.03 0.04 0.03 0.03 0.02 0.01 0.00 0.00 0.00 0.00 0.00 0.00 0.00 0.00 0.00 0.00 0.00 0.00 0.00 0.00 0.00 0.00 0.00 0.00 0.00 0.00 0.00 0.00 0.00 0.00 0.00 0.00 0.00 0.00 0.00 0.01 0.01 0.00 0.00 0.00 0.00
0.00 0.00 0.01 0.01 0.01 0.00 0.00 0.00 0.00 0.00 0.00 0.00 0.00 0.00 0.00 0.00 0.00 0.00 0.00 0.00 0.00 0.00 0.00 0.00 0.00 0.00 0.00 0.00 0.00 0.00 0.00 0.00 0.00 0.00 0.00 0.00 0.01 0.01 0.00 0.00 0.00 0.00
0.00 0.00 0.00 0.00 0.00 0.00 0.00 0.00 0.00 0.00 0.00 0.00 0.00 0.00 0.00 0.00 0.00 0.00 0.00 0.00 0.00 0.00 0.00 0.00 0.00 0.00 0.00 0.00 0.00 0.00 0.00 0.00 0.00 0.00 0.00 0.00 0.00 0.00 0.00 0.00 0.00 0.00
0.00 0.00 0.00 0.00 0.00 0.00 0.00 0.00 0.00 0.00 0.00 0.00 0.00 0.00 0.00 0.00 0.00 0.00 0.00 0.00 0.00 0.00 0.00 0.00 0.00 0.00 0.00 0.00 0.00 0.00 0.00 0.00 0.00 0.00 0.00 0.00 0.00 0.00 0.00 0.00 0.00 0.00
0.00 0.00 0.00 0.00 0.00 0.00 0.00 0.00 0.00 0.00 0.00 0.00 0.00 0.00 0.00 0.00 0.00 0.00 0.00 0.00 0.00 0.00 0.00 0.00 0.00 0.00 0.00 0.00 0.00 0.00 0.00 0.00 0.00 0.00 0.00 0.00 0.00 0.00 0.00 0.00 0.00 0.00
0.00 0.00 0.00 0.00 0.00 0.00 0.00 0.00 0.00 0.00 0.00 0.00 0.00 0.00 0.00 0.00 0.00 0.00 0.00 0.00 0.00 0.00 0.00 0.00 0.00 0.00 0.00 0.00 0.00 0.00 0.00 0.00 0.00 0.00 0.00 0.00 0.00 0.00 0.00 0.00 0.00 0.00
0.00 0.00 0.00 0.00 0.00 0.00 0.00 0.00 0.00 0.00 0.00 0.00 0.00 0.00 0.00 0.00 0.00 0.00 0.00 0.00 0.00 0.00 0.00 0.00 0.00 0.00 0.00 0.00 0.00 0.00 0.00 0.00 0.00 0.00 0.00 0.00 0.00 0.00 0.00 0.00 0.00 0.00
0.00 0.00 0.00 0.00 0.00 0.00 0.00 0.00 0.00 0.00 0.00 0.00 0.00 0.00 0.00 0.00 0.00 0.00 0.00 0.00 0.00 0.00 0.00 0.00 0.00 0.00 0.00 0.00 0.00 0.00 0.00 0.00 0.00 0.00 0.00 0.00 0.00 0.00 0.00 0.00 0.00 0.00
0.00 0.00 0.00 0.00 0.00 0.00 0.00 0.00 0.00 0.00 0.00 0.00 0.00 0.00 0.00 0.00 0.00 0.00 0.00 0.00 0.00 0.00 0.00 0.00 0.00 0.00 0.00 0.00 0.00 0.00 0.00 0.00 0.00 0.00 0.00 0.00 0.00 0.00 0.00 0.00 0.00 0.00
0.00 0.00 0.00 0.00 0.00 0.00 0.00 0.00 0.00 0.00 0.00 0.00 0.00 0.00 0.00 0.00 0.00 0.00 0.00 0.00 0.00 0.00 0.00 0.00 0.00 0.00 0.00 0.00 0.00 0.00 0.00 0.00 0.00 0.00 0.00 0.00 0.00 0.00 0.00 0.00 0.00 0.00
0.00 0.00 0.00 0.00 0.00 0.00 0.00 0.00 0.00 0.00 0.00 0.00 0.00 0.00 0.00 0.00 0.00 0.00 0.00 0.00 0.00 0.00 0.00 0.00 0.00 0.00 0.00 0.00 0.00 0.00 0.00 0.00 0.00 0.00 0.00 0.00 0.00 0.00 0.00 0.00 0.00 0.00
0.00 0.00 0.00 0.00 0.00 0.00 0.00 0.00 0.00 0.00 0.00 0.00 0.00 0.00 0.00 0.00 0.00 0.00 0.00 0.00 0.00 0.00 0.00 0.00 0.00 0.00 0.00 0.00 0.00 0.00 0.00 0.00 0.00 0.00 0.00 0.00 0.00 0.00 0.00 0.00 0.00 0.00
0.00 0.00 0.00 0.00 0.00 0.00 0.00 0.00 0.00 0.00 0.00 0.00 0.00 0.00 0.00 0.00 0.00 0.00 0.00 0.00 0.00 0.00 0.00 0.00 0.00 0.00 0.00 0.00 0.00 0.00 0.00 0.00 0.00 0.00 0.00 0.00 0.00 0.00 0.00 0.00 0.00 0.00
0.00 0.00 0.00 0.00 0.00 0.00 0.00 0.00 0.00 0.00 0.00 0.00 0.00 0.00 0.00 0.00 0.00 0.00 0.00 0.00 0.00 0.00 0.00 0.00 0.00 0.00 0.00 0.00 0.00 0.00 0.00 0.00 0.00 0.00 0.00 0.00 0.00 0.00 0.00 0.00 0.00 0.00
0.00 0.00 0.00 0.00 0.00 0.00 0.00 0.00 0.00 0.00 0.00 0.00 0.00 0.00 0.00 0.00 0.00 0.00 0.00 0.00 0.00 0.00 0.00 0.00 0.00 0.00 0.00 0.00 0.00 0.00 0.00 0.00 0.00 0.00 0.00 0.00 0.00 0.00 0.00 0.00 0.00 0.00
0.00 0.00 0.00 0.00 0.00 0.00 0.00 0.00 0.00 0.00 0.00 0.00 0.00 0.00 0.00 0.00 0.00 0.00 0.00 0.00 0.00 0.00 0.00 0.00 0.00 0.00 0.00 0.00 0.00 0.00 0.00 0.00 0.00 0.00 0.00 0.00 0.00 0.00 0.00 0.00 0.00 0.00
0.00 0.00 0.00 0.00 0.00 0.00 0.00 0.00 0.00 0.00 0.00 0.00 0.00 0.00 0.00 0.00 0.00 0.00 0.00 0.00 0.00 0.00 0.00 0.00 0.00 0.00 0.00 0.00 0.00 0.00 0.00 0.00 0.00 0.00 0.00 0.00 0.00 0.00 0.00 0.00 0.00 0.00
0.00 0.00 0.00 0.00 0.00 0.00 0.00 0.00 0.00 0.00 0.00 0.00 0.00 0.00 0.00 0.00 0.00 0.00 0.00 0.00 0.00 0.00 0.00 0.00 0.00 0.00 0.00 0.00 0.00 0.00 0.00 0.00 0.00 0.00 0.00 0.00 0.00 0.00 0.00 0.00 0.00 0.00
0.00 0.00 0.00 0.00 0.00 0.00 0.00 0.00 0.00 0.00 0.00 0.00 0.00 0.00 0.00 0.00 0.00 0.00 0.00 0.00 0.00 0.00 0.00 0.00 0.00 0.00 0.00 0.00 0.00 0.00 0.00 0.00 0.00 0.00 0.00 0.00 0.00 0.00 0.00 0.00 0.00 0.00
0.01 0.00 0.00 0.00 0.00 0.00 0.00 0.00 0.00 0.00 0.00 0.00 0.00 0.00 0.00 0.00 0.00 0.00 0.00 0.00 0.00 0.00 0.00 0.00 0.00 0.00 0.00 0.00 0.00 0.00 0.00 0.00 0.00 0.00 0.00 0.00 0.00 0.00 0.00 0.00 0.00 0.00
0.02 0.01 0.00 0.00 0.00 0.00 0.00 0.00 0.00 0.00 0.00 0.00 0.00 0.00 0.00 0.00 0.00 0.00 0.00 0.00 0.00 0.00 0.00 0.00 0.00 0.00 0.00 0.00 0.00 0.00 0.00 0.00 0.00 0.00 0.00 0.00 0.00 0.00 0.00 0.00 0.00 0.00
0.01 0.00 0.00 0.00 0.00 0.00 0.00 0.00 0.00 0.00 0.00 0.00 0.00 0.00 0.00 0.00 0.00 0.00 0.00 0.00 0.00 0.00 0.00 0.00 0.00 0.00 0.00 0.00 0.00 0.00 0.00 0.00 0.00 0.00 0.00 0.00 0.00 0.00 0.00 0.00 0.00 0.00
0.00 0.00 0.00 0.00 0.00 0.00 0.00 0.00 0.00 0.00 0.00 0.00 0.00 0.00 0.00 0.00 0.00 0.00 0.00 0.00 0.00 0.00 0.00 0.00 0.00 0.00 0.00 0.00 0.00 0.00 0.00 0.00 0.00 0.00 0.00 0.00 0.00 0.00 0.00 0.00 0.00 0.00
0.00 0.00 0.00 0.00 0.00 0.00 0.00 0.00 0.00 0.00 0.00 0.00 0.00 0.00 0.00 0.00 0.00 0.00 0.00 0.00 0.00 0.00 0.00 0.00 0.00 0.00 0.00 0.00 0.00 0.00 0.00 0.00 0.00 0.00 0.00 0.00 0.00 0.00 0.00 0.00 0.00 0.00
MSLP
1014.68 1014.72 1015.04 1015.28 1015.57 1015.65 1015.77 1015.84 1015.68 1016.16 1016.89 1017.28 1017.53 1017.57 1017.45 1017.36 1017.24 1017.33 1017.48 1017.57 1017.77 1017.97 1018.01 1018.04 1018.04 1018.12 1018.12 1018.12 1018.16 1018.16 1018.12 1018.09 1017.97 1017.80 1017.68 1017.60 1017.53 1017.36 1017.33 1017.16 1017.01 1016.89
1014.92 1014.97 1015.12 1015.36 1015.60 1015.68 1015.53 1015.41 1015.65 1016.16 1016.80 1017.16 1017.41 1017.45 1017.36 1017.33 1017.28 1017.36 1017.68 1017.80 1017.89 1017.97 1018.01 1018.16 1018.16 1018.21 1018.24 1018.24 1018.21 1018.24 1018.21 1018.12 1018.04 1017.77 1017.77 1017.68 1017.60 1017.45 1017.48 1017.36 1017.24 1017.04
1015.12 1015.28 1015.36 1015.57 1015.53 1015.28 1015.28 1015.45 1015.77 1016.28 1016.72 1017.09 1017.24 1017.36 1017.36 1017.33 1017.45 1017.65 1017.77 1017.84 1017.97 1018.09 1018.21 1018.28 1018.33 1018.36 1018.33 1018.33 1018.33 1018.33 1018.24 1018.16 1018.09 1017.89 1017.80 1017.84 1017.68 1017.68 1017.72 1017.60 1017.57 1017.57
1015.04 1015.21 1015.48 1015.48 1015.09 1015.09 1015.36 1015.68 1016.04 1016.48 1016.80 1017.09 1017.33 1017.36 1017.36 1017.41 1017.65 1017.97 1018.01 1018.12 1018.33 1018.41 1018.41 1018.36 1018.45 1018.45 1018.41 1018.41 1018.41 1018.36 1018.24 1018.12 1018.09 1017.97 1017.92 1017.89 1017.89 1017.92 1018.09 1018.01 1018.04 1017.97
1015.01 1015.24 1015.41 1015.24 1015.01 1015.12 1015.48 1015.89 1016.41 1016.72 1016.92 1017.12 1017.24 1017.45 1017.57 1017.84 1018.12 1018.16 1018.28 1018.36 1018.41 1018.48 1018.45 1018.48 1018.53 1018.60 1018.53 1018.48 1018.45 1018.41 1018.36 1018.41 1018.28 1018.16 1018.16 1018.24 1018.24 1018.24 1018.36 1018.36 1018.36 1018.28
1015.09 1015.21 1015.24 1015.16 1015.21 1015.45 1015.80 1016.21 1016.53 1016.77 1017.01 1017.28 1017.72 1017.77 1017.89 1018.09 1018.28 1018.45 1018.45 1018.45 1018.45 1018.53 1018.60 1018.65 1018.68 1018.65 1018.60 1018.60 1018.53 1018.48 1018.53 1018.53 1018.41 1018.33 1018.36 1018.41 1018.53 1018.53 1018.60 1018.65 1018.65 1018.57
1015.24 1015.28 1015.36 1015.36 1015.57 1015.80 1016.12 1016.48 1016.77 1016.92 1017.28 1017.57 1017.65 1017.97 1018.09 1018.33 1018.45 1018.57 1018.53 1018.57 1018.60 1018.72 1018.89 1018.92 1018.97 1018.92 1018.77 1018.77 1018.68 1018.68 1018.72 1018.68 1018.65 1018.57 1018.57 1018.68 1018.77 1018.89 1018.84 1018.84 1018.80 1018.77
1015.33 1015.41 1015.57 1015.72 1016.01 1016.28 1016.57 1016.80 1017.04 1017.36 1017.53 1017.65 1017.89 1018.12 1018.21 1018.48 1018.68 1018.68 1018.68 1018.80 1018.97 1019.04 1019.16 1019.21 1019.12 1019.01 1018.92 1018.84 1018.89 1018.92 1018.97 1018.92 1018.92 1018.84 1018.89 1019.01 1019.04 1019.16 1019.16 1019.04 1018.97 1018.92
1015.45 1015.68 1015.92 1016.12 1016.41 1016.60 1016.80 1017.01 1017.33 1017.57 1017.65 1017.92 1018.12 1018.33 1018.48 1018.72 1018.80 1018.80 1018.97 1019.09 1019.28 1019.57 1019.57 1019.53 1019.36 1019.24 1019.04 1018.97 1019.01 1019.04 1019.12 1019.12 1019.09 1019.09 1019.12 1019.24 1019.33 1019.41 1019.36 1019.28 1019.21 1019.16
1015.68 1016.01 1016.24 1016.48 1016.72 1016.92 1017.09 1017.21 1017.41 1017.68 1017.89 1018.09 1018.33 1018.57 1018.72 1018.89 1018.89 1019.01 1019.12 1019.45 1019.72 1019.89 1019.92 1019.80 1019.65 1019.48 1019.28 1019.12 1019.12 1019.21 1019.24 1019.24 1019.24 1019.21 1019.24 1019.28 1019.45 1019.53 1019.48 1019.45 1019.45 1019.41
1016.01 1016.24 1016.48 1016.72 1016.97 1017.09 1017.24 1017.36 1017.65 1017.97 1018.09 1018.24 1018.48 1018.68 1018.80 1018.84 1019.09 1019.28 1019.60 1019.89 1020.12 1020.16 1020.16 1020.04 1019.92 1019.77 1019.65 1019.48 1019.36 1019.28 1019.28 1019.33 1019.28 1019.24 1019.28 1019.36 1019.48 1019.53 1019.53 1019.53 1019.57 1019.57
1016.21 1016.41 1016.65 1016.89 1017.12 1017.24 1017.45 1017.80 1018.01 1018.09 1018.21 1018.36 1018.45 1018.68 1018.84 1019.12 1019.45 1019.77 1020.09 1020.28 1020.33 1020.28 1020.21 1020.28 1020.21 1020.09 1019.97 1019.80 1019.60 1019.41 1019.36 1019.33 1019.28 1019.24 1019.28 1019.41 1019.53 1019.57 1019.53 1019.53 1019.65 1019.65
1016.41 1016.65 1016.84 1017.09 1017.33 1017.53 1017.77 1017.97 1018.09 1018.21 1018.33 1018.36 1018.45 1018.68 1019.04 1019.48 1019.72 1020.12 1020.41 1020.53 1020.45 1020.33 1020.36 1020.36 1020.36 1020.33 1020.33 1020.12 1019.89 1019.65 1019.41 1019.33 1019.24 1019.21 1019.28 1019.48 1019.57 1019.53 1019.48 1019.53 1019.60 1019.72
1016.65 1016.84 1017.04 1017.33 1017.53 1017.68 1017.89 1018.09 1018.21 1018.33 1018.36 1018.45 1018.60 1018.92 1019.28 1019.68 1020.01 1020.36 1020.57 1020.53 1020.53 1020.53 1020.57 1020.53 1020.57 1020.65 1020.65 1020.53 1020.24 1019.89 1019.48 1019.33 1019.28 1019.24 1019.28 1019.45 1019.57 1019.53 1019.45 1019.45 1019.60 1019.77
1016.80 1017.04 1017.28 1017.48 1017.65 1017.84 1018.04 1018.21 1018.33 1018.45 1018.53 1018.68 1018.84 1019.12 1019.45 1019.80 1020.09 1020.41 1020.53 1020.57 1020.60 1020.65 1020.68 1020.80 1020.89 1021.04 1021.12 1020.92 1020.45 1019.92 1019.68 1019.53 1019.57 1019.57 1019.53 1019.53 1019.53 1019.53 1019.41 1019.41 1019.57 1019.72
1016.89 1017.21 1017.41 1017.60 1017.80 1017.97 1018.16 1018.36 1018.48 1018.57 1018.72 1018.89 1019.09 1019.33 1019.65 1019.89 1020.16 1020.41 1020.57 1020.65 1020.72 1020.80 1020.92 1021.09 1021.33 1021.41 1021.36 1021.09 1020.68 1020.28 1019.97 1019.92 1020.04 1020.09 1020.09 1020.09 1020.04 1019.84 1019.65 1019.45 1019.53 1019.72
1017.04 1017.28 1017.48 1017.72 1017.92 1018.12 1018.21 1018.33 1018.57 1018.77 1018.92 1019.09 1019.33 1019.60 1019.89 1020.09 1020.28 1020.48 1020.60 1020.68 1020.84 1021.01 1021.12 1021.28 1021.57 1021.65 1021.36 1020.77 1020.28 1020.09 1020.12 1020.28 1020.41 1020.53 1020.53 1020.53 1020.53 1020.53 1020.45 1020.16 1019.84 1019.89
1017.16 1017.33 1017.57 1017.77 1017.97 1018.09 1018.16 1018.33 1018.57 1018.77 1019.01 1019.21 1019.36 1019.68 1019.97 1020.12 1020.36 1020.53 1020.65 1020.84 1021.04 1021.24 1021.36 1021.48 1021.65 1021.68 1021.16 1020.77 1020.48 1020.36 1020.45 1020.60 1020.77 1020.92 1021.01 1021.01 1021.01 1020.97 1020.84 1020.65 1020.41 1020.28
1017.24 1017.48 1017.72 1017.89 1017.92 1017.97 1018.12 1018.45 1018.68 1018.92 1019.12 1019.28 1019.45 1019.60 1019.89 1020.12 1020.33 1020.48 1020.72 1020.97 1021.21 1021.41 1021.60 1021.68 1021.68 1021.68 1021.24 1020.89 1020.72 1020.60 1020.68 1020.80 1021.09 1021.21 1021.24 1021.36 1021.33 1021.24 1021.12 1021.01 1020.80 1020.65
1017.16 1017.45 1017.72 1017.80 1017.89 1018.04 1018.28 1018.53 1018.80 1019.09 1019.24 1019.33 1019.41 1019.57 1019.80 1020.12 1020.33 1020.53 1020.80 1021.04 1021.33 1021.57 1021.72 1021.77 1021.68 1021.60 1021.16 1020.80 1020.72 1020.72 1020.80 1020.97 1021.24 1021.36 1021.48 1021.53 1021.53 1021.48 1021.41 1021.33 1021.16 1021.01
1017.12 1017.45 1017.60 1017.72 1017.89 1018.12 1018.33 1018.57 1018.80 1019.09 1019.21 1019.33 1019.48 1019.65 1019.89 1020.16 1020.45 1020.68 1020.89 1021.16 1021.48 1021.68 1021.68 1021.65 1021.80 1021.68 1021.16 1020.84 1020.72 1020.68 1020.84 1021.01 1021.33 1021.45 1021.53 1021.60 1021.65 1021.60 1021.57 1021.53 1021.45 1021.28
1017.01 1017.41 1017.60 1017.77 1017.92 1018.09 1018.33 1018.60 1018.89 1019.09 1019.33 1019.53 1019.72 1020.01 1020.28 1020.48 1020.80 1020.97 1021.21 1021.48 1021.72 1021.80 1021.72 1021.60 1021.60 1021.53 1021.24 1020.92 1020.72 1020.77 1020.89 1021.12 1021.41 1021.57 1021.65 1021.65 1021.65 1021.60 1021.60 1021.57 1021.53 1021.48
1016.97 1017.36 1017.65 1017.77 1017.92 1018.16 1018.45 1018.60 1018.80 1019.12 1019.36 1019.53 1019.84 1020.21 1020.53 1020.89 1021.12 1021.41 1021.60 1021.80 1021.89 1021.89 1021.80 1021.72 1021.60 1021.57 1021.24 1020.80 1020.60 1020.80 1020.97 1021.28 1021.45 1021.65 1021.77 1021.72 1021.68 1021.68 1021.65 1021.57 1021.45 1021.48
1016.92 1017.24 1017.53 1017.72 1017.92 1018.16 1018.33 1018.53 1018.77 1019.09 1019.41 1019.57 1019.92 1020.33 1020.68 1021.04 1021.33 1021.65 1021.92 1022.01 1022.01 1022.01 1022.01 1021.89 1021.84 1021.72 1021.16 1020.68 1020.65 1020.89 1021.09 1021.41 1021.57 1021.72 1021.92 1021.92 1021.89 1021.80 1021.72 1021.65 1021.48 1021.45
1016.77 1017.09 1017.41 1017.65 1017.92 1018.16 1018.33 1018.53 1018.77 1019.09 1019.36 1019.60 1020.04 1020.41 1020.89 1021.24 1021.60 1021.92 1022.16 1022.21 1022.21 1022.16 1022.04 1022.04 1022.01 1021.84 1021.45 1021.01 1021.01 1021.04 1021.16 1021.48 1021.72 1022.01 1022.16 1022.16 1022.09 1021.97 1021.89 1021.80 1021.68 1021.53
1016.68 1017.01 1017.36 1017.65 1017.92 1018.12 1018.33 1018.53 1018.80 1019.12 1019.53 1019.89 1020.28 1020.60 1021.09 1021.48 1021.80 1022.09 1022.28 1022.48 1022.48 1022.33 1022.21 1022.16 1022.09 1022.12 1021.89 1021.41 1021.33 1021.33 1021.33 1021.53 1021.80 1022.01 1022.24 1022.33 1022.28 1022.21 1022.09 1022.01 1021.97 1021.84
Thickness
5674 5673 5670 5670 5670 5670 5671 5674 5677 5675 5669 5665 5663 5663 5665 5666 5667 5667 5665 5664 5662 5660 5660 5659 5658 5658 5656 5655 5654 5653 5652 5650 5650 5650 5650 5649 5649 5648 5647 5646 5647 5646
5669 5669 5667 5667 5667 5668 5671 5675 5675 5672 5668 5665 5663 5662 5663 5664 5665 5664 5662 5660 5660 5658 5657 5657 5655 5655 5653 5652 5651 5650 5649 5648 5648 5647 5647 5646 5646 5644 5643 5642 5642 5642
5665 5666 5665 5665 5667 5671 5673 5674 5671 5669 5667 5664 5662 5661 5661 5662 5662 5660 5659 5658 5657 5655 5655 5653 5652 5651 5650 5649 5648 5647 5646 5645 5645 5645 5644 5643 5642 5641 5639 5637 5636 5635
5663 5663 5663 5664 5669 5672 5672 5670 5666 5664 5664 5662 5660 5659 5659 5659 5658 5656 5655 5654 5653 5652 5651 5650 5649 5648 5647 5646 5645 5644 5643 5643 5642 5642 5641 5640 5638 5636 5633 5631 5630 5629
5661 5661 5661 5664 5669 5670 5668 5666 5662 5661 5661 5659 5658 5657 5656 5655 5653 5651 5651 5650 5650 5649 5648 5647 5646 5645 5644 5643 5642 5641 5640 5639 5638 5637 5636 5635 5633 5631 5628 5626 5625 5624
5659 5659 5660 5663 5666 5666 5664 5660 5658 5658 5658 5656 5654 5652 5652 5651 5649 5648 5647 5647 5647 5646 5644 5643 5642 5641 5640 5639 5639 5638 5637 5635 5634 5634 5632 5629 5628 5625 5623 5621 5619 5619
5657 5658 5659 5660 5661 5660 5658 5655 5654 5655 5653 5651 5650 5649 5648 5647 5645 5645 5645 5644 5643 5641 5640 5638 5637 5637 5636 5636 5635 5634 5633 5631 5630 5629 5627 5624 5622 5620 5618 5617 5616 5614
5656 5655 5656 5656 5656 5654 5653 5651 5651 5649 5649 5648 5647 5645 5645 5643 5642 5642 5641 5640 5638 5636 5634 5633 5633 5633 5633 5632 5631 5629 5628 5626 5625 5624 5622 5619 5617 5614 5612 5612 5611 5610
5653 5652 5651 5651 5650 5649 5648 5648 5647 5646 5645 5645 5643 5642 5641 5639 5638 5638 5637 5635 5633 5630 5629 5628 5628 5629 5629 5629 5627 5625 5623 5622 5620 5619 5617 5614 5612 5610 5608 5607 5606 5605
5649 5648 5647 5646 5645 5645 5645 5645 5643 5642 5641 5641 5639 5638 5637 5636 5636 5635 5632 5630 5627 5625 5624 5623 5624 5625 5625 5624 5623 5621 5619 5617 5616 5614 5613 5611 5608 5606 5605 5603 5601 5600
5646 5644 5643 5643 5642 5642 5642 5641 5639 5638 5638 5637 5636 5635 5634 5633 5632 5629 5627 5624 5621 5620 5619 5619 5620 5620 5620 5619 5618 5617 5615 5613 5612 5611 5609 5607 5605 5602 5601 5599 5597 5596
5642 5642 5641 5640 5639 5639 5638 5636 5635 5635 5635 5635 5634 5633 5632 5630 5627 5624 5621 5619 5617 5617 5616 5615 5615 5615 5614 5614 5613 5613 5611 5610 5609 5608 5606 5603 5601 5599 5598 5596 5594 5592
5639 5639 5638 5637 5636 5635 5634 5633 5633 5632 5633 5633 5632 5631 5628 5625 5623 5619 5616 5614 5614 5613 5612 5611 5611 5610 5609 5608 5608 5608 5608 5607 5607 5605 5603 5600 5597 5596 5595 5593 5591 5588
5637 5636 5635 5634 5633 5632 5631 5630 5630 5629 5630 5630 5629 5627 5624 5621 5618 5614 5612 5611 5610 5609 5608 5607 5607 5605 5603 5603 5603 5604 5604 5605 5603 5602 5601 5597 5594 5593 5592 5590 5588 5586
5633 5632 5631 5630 5630 5629 5628 5627 5626 5626 5627 5626 5625 5623 5620 5617 5614 5611 5609 5608 5607 5605 5604 5603 5601 5599 5598 5597 5598 5599 5600 5600 5599 5597 5596 5593 5591 5590 5589 5588 5585 5583
5630 5629 5628 5627 5626 5625 5624 5624 5623 5623 5623 5622 5620 5618 5616 5614 5611 5608 5606 5604 5603 5601 5599 5597 5595 5594 5593 5594 5595 5596 5596 5595 5593 5591 5589 5588 5586 5585 5585 5585 5583 5580
5627 5626 5625 5624 5622 5622 5622 5621 5620 5619 5618 5618 5616 5614 5611 5610 5607 5604 5602 5600 5598 5597 5594 5593 5591 5589 5590 5591 5592 5593 5592 5590 5587 5585 5584 5582 5580 5578 5578 5578 5577 5576
5623 5623 5622 5620 5620 5619 5619 5618 5617 5616 5615 5614 5612 5610 5607 5606 5603 5601 5598 5596 5594 5592 5590 5588 5587 5586 5587 5588 5589 5588 5587 5585 5582 5579 5578 5576 5574 5573 5572 5572 5571 5570
5620 5619 5618 5617 5618 5617 5616 5615 5614 5612 5611 5610 5608 5607 5604 5602 5600 5597 5595 5592 5590 5588 5586 5585 5584 5583 5584 5585 5585 5584 5582 5580 5577 5574 5572 5570 5569 5568 5567 5566 5565 5564
5618 5616 5615 5614 5615 5614 5613 5611 5610 5608 5607 5606 5605 5603 5601 5599 5596 5594 5591 5588 5586 5583 5582 5581 5580 5581 5582 5582 5581 5580 5578 5576 5573 5570 5568 5566 5564 5563 5561 5560 5560 5558
5615 5614 5613 5612 5612 5611 5610 5609 5607 5605 5604 5602 5601 5600 5597 5595 5592 5590 5587 5584 5582 5580 5579 5579 5578 5578 5579 5579 5578 5576 5574 5572 5569 5566 5564 5562 5560 5559 5557 5555 5554 5553
5611 5610 5610 5610 5609 5608 5607 5605 5603 5602 5600 5598 5597 5594 5593 5590 5587 5585 5582 5579 5577 5575 5575 5576 5575 5576 5576 5576 5575 5573 5570 5568 5565 5562 5560 5559 5557 5555 5553 5552 5551 5550
5610 5608 5607 5607 5606 5604 5603 5602 5601 5598 5596 5595 5593 5590 5588 5584 5582 5579 5576 5574 5573 5572 5572 5572 5572 5572 5573 5574 5572 5569 5566 5564 5561 5558 5556 5554 5553 5551 5550 5549 5547 5546
5609 5607 5605 5603 5603 5601 5600 5599 5598 5595 5593 5592 5589 5586 5583 5579 5577 5574 5571 5570 5569 5569 5568 5568 5567 5568 5569 5570 5569 5566 5562 5559 5557 5554 5551 5549 5548 5547 5546 5545 5544 5543
5607 5605 5603 5601 5600 5598 5598 5597 5595 5593 5591 5588 5585 5582 5578 5575 5572 5569 5567 5565 5565 5564 5564 5564 5563 5563 5564 5565 5564 5562 5560 5556 5553 5550 5547 5544 5544 5543 5542 5541 5540 5539
5606 5603 5600 5599 5597 5596 5595 5593 5591 5589 5586 5583 5580 5577 5574 5571 5567 5565 5562 5561 5560 5560 5560 5559 5559 5558 5558 5559 5559 5557 5555 5553 5549 5546 5543 5541 5539 5538 5537 5536 5535 5534